Weather History for Fort Simpson, NT

Change the Weather History Date:

Sunday, December 15, 2013

  Actual Average Record
Temperature  
Mean Temperature -8 °F -  
Max Temperature -5 °F - - ()
Min Temperature -11 °F - - ()
Degree Days  
Heating Degree Days 73    
Moisture  
Dew Point -12 °F    
Average Humidity 79    
Maximum Humidity 84    
Minimum Humidity 67    
Precipitation  
Precipitation 0.08 in - - ()
Sea Level Pressure  
Sea Level Pressure 29.62 in    
Wind  
Wind Speed 9 mph ()    
Max Wind Speed 15 mph    
Max Gust Speed 20 mph    
T = Trace of Precipitation, MM = Missing Value Source: Averaged Metar Reports

Daily Weather History Graph

Daily Weather History Graph

Search for Another Location

Airport:

Trip Planner

Search our weather history database for the weather conditions in past years. The results will help you decide how hot, cold, wet, or windy it might be!

Date:

Astronomy

Dec. 15, 2013 Rise Set
Actual Time 10:21 AM MST 3:39 PM MST
Civil Twilight 9:16 AM MST 4:43 PM MST
Nautical Twilight 8:15 AM MST 5:44 PM MST
Astronomical Twilight 7:20 AM MST 6:39 PM MST
Moon 3:14 PM MST (12/15) 8:13 AM MST (12/15)
Length of Visible Light 7h 26m
Length of Day
5h 18m
Waxing Gibbous, 98% of the Moon is Illuminated
Dec 15
Waxing Gibbous
Dec 17
Full
Dec 25
Last Quarter
Jan 1
New
Jan 7
First Quarter

Hourly Weather History & Observations

Time (MST) Temp. Windchill Dew Point Humidity Pressure Visibility Wind Dir Wind Speed Gust Speed Precip Events Conditions
12:00 AM -9.2 °F -18.4 °F -13.0 °F 83% 29.40 in - NNW 3.5 mph - N/A   Unknown
1:00 AM -7.1 °F -19.9 °F -10.7 °F 84% 29.39 in - NNW 5.8 mph - N/A   Unknown
2:00 AM -6.3 °F -20.6 °F -10.1 °F 84% 29.40 in - NNW 6.9 mph - N/A   Unknown
3:00 AM -5.6 °F -19.7 °F -9.4 °F 84% 29.39 in - NW 6.9 mph - N/A   Unknown
4:00 AM -5.6 °F -21.0 °F -9.6 °F 83% 29.41 in - NW 8.1 mph - N/A   Unknown
5:00 AM -6 °F - -10 °F 71% 29.42 in - NW 12.7 mph - -  
5:00 AM -6.2 °F -25.7 °F -10.5 °F 82% 29.42 in - NW 12.7 mph - 0.01 in   Unknown
6:00 AM -6.0 °F -24.6 °F -10.1 °F 82% 29.44 in - NW 11.5 mph - N/A   Unknown
7:00 AM -5.8 °F -26.0 °F -10.1 °F 82% 29.46 in - NW 13.8 mph - N/A   Unknown
8:00 AM -6.0 °F -26.3 °F -10.7 °F 80% 29.48 in - NNW 13.8 mph - 0.01 in   Unknown
9:00 AM -6.2 °F -27.3 °F -11.6 °F 77% 29.52 in - NW 15.0 mph - N/A   Unknown
10:00 AM -6.2 °F -25.7 °F -10.7 °F 81% 29.55 in - NW 12.7 mph - N/A   Unknown
11:00 AM -6 °F - -11 °F 69% 29.58 in - NNW 13.8 mph - -  
11:00 AM -6.2 °F -26.5 °F -10.8 °F 80% 29.58 in - NNW 13.8 mph 19.6 mph N/A   Unknown
12:00 PM -6.2 °F -27.3 °F -11.6 °F 77% 29.61 in - NNW 15.0 mph - N/A   Unknown
1:00 PM -6.2 °F -24.8 °F -10.8 °F 80% 29.63 in - NW 11.5 mph - 0.01 in   Unknown
2:00 PM -7.1 °F -25.0 °F -11.9 °F 79% 29.67 in - NW 10.4 mph - 0.02 in   Unknown
3:00 PM -8.1 °F -26.3 °F -13.0 °F 79% 29.70 in - WNW 10.4 mph - 0.01 in   Unknown
4:00 PM -8.9 °F -25.0 °F -13.5 °F 80% 29.74 in - WNW 8.1 mph - N/A   Unknown
5:00 PM -9 °F - -14 °F 67% 29.78 in - WNW 9.2 mph - -  
5:00 PM -9.4 °F -26.8 °F -14.1 °F 80% 29.78 in - WNW 9.2 mph - 0.02 in   Unknown
6:00 PM -9.8 °F -26.1 °F -14.3 °F 81% 29.81 in - NW 8.1 mph - 0.01 in   Unknown
7:00 PM -10.1 °F -27.7 °F -14.6 °F 81% 29.83 in - NW 9.2 mph - 0.02 in   Unknown
8:00 PM -10.5 °F -29.2 °F -15.2 °F 80% 29.84 in - NW 10.4 mph - 0.01 in   Unknown
9:00 PM -10.3 °F -26.7 °F -15.0 °F 80% 29.87 in - NW 8.1 mph - N/A   Unknown
10:00 PM -10.5 °F -30.2 °F -15.2 °F 80% 29.89 in - WNW 11.5 mph - 0.01 in   Unknown
11:00 PM -11 °F - -15 °F 71% 29.92 in - WNW 10.4 mph - -  
11:00 PM -10.7 °F -29.5 °F -15.3 °F 80% 29.92 in - WNW 10.4 mph - 0.01 in   Unknown